| time (UTC) | temp F | wind direction | speed MPH | gust MPH | rain 1hr in | rain 24hr in | rain mn in | humidity % | barometer mb |
| 20260507192521 | 73 | 44 | 1.0 | 5.0 | 0.00 | 0.00 | 0.00 | 49 | 1016.1 |
| 20260507192007 | 71 | 27 | 2.0 | 10.0 | 0.00 | 0.00 | 0.00 | 50 | 1016.3 |
| 20260507190958 | 71 | 56 | 4.0 | 12.0 | 0.00 | 0.00 | 0.00 | 51 | 1016.5 |
| 20260507185520 | 71 | 54 | 3.0 | 12.0 | 0.00 | 0.00 | 0.00 | 49 | 1016.6 |
| 20260507185452 | 70 | 24 | 4.0 | 12.0 | 0.00 | 0.00 | 0.00 | 54 | 1016.6 |
| 20260507183521 | 70 | 58 | 8.0 | 12.0 | 0.00 | 0.00 | 0.00 | 51 | 1016.7 |
| 20260507182520 | 70 | 28 | 6.0 | 10.0 | 0.00 | 0.00 | 0.00 | 56 | 1016.8 |
| 20260507181520 | 69 | 34 | 6.0 | 12.0 | 0.00 | 0.00 | 0.00 | 53 | 1016.9 |
| 20260507180520 | 68 | 54 | 5.0 | 12.0 | 0.00 | 0.00 | 0.00 | 53 | 1017.1 |
| 20260507175520 | 69 | 20 | 6.0 | 11.0 | 0.00 | 0.00 | 0.00 | 54 | 1017.3 |
| 20260507174514 | 68 | 96 | 5.0 | 11.0 | 0.00 | 0.00 | 0.00 | 55 | 1017.4 |
| 20260507173511 | 68 | 117 | 2.0 | 12.0 | 0.00 | 0.00 | 0.00 | 57 | 1017.8 |
| 20260507172504 | 67 | 358 | 2.0 | 10.0 | 0.00 | 0.00 | 0.00 | 56 | 1018.0 |
| 20260507171503 | 66 | 30 | 3.0 | 7.0 | 0.00 | 0.00 | 0.00 | 60 | 1018.4 |
| 20260507170501 | 66 | 31 | 3.0 | 11.0 | 0.00 | 0.00 | 0.00 | 61 | 1018.6 |
| 20260507165501 | 65 | 48 | 4.0 | 7.0 | 0.00 | 0.00 | 0.00 | 60 | 1018.9 |
| 20260507164501 | 65 | 58 | 2.0 | 10.0 | 0.00 | 0.00 | 0.00 | 59 | 1018.9 |
| 20260507163502 | 65 | 45 | 2.0 | 7.0 | 0.00 | 0.00 | 0.00 | 62 | 1018.8 |
| 20260507162502 | 65 | 110 | 0.0 | 11.0 | 0.00 | 0.00 | 0.00 | 62 | 1018.9 |
| 20260507161501 | 64 | 100 | 3.0 | 7.0 | 0.00 | 0.00 | 0.00 | 61 | 1018.9 |
| 20260507160456 | 64 | 42 | 4.0 | 9.0 | 0.00 | 0.00 | 0.00 | 64 | 1018.9 |
| 20260507155931 | 63 | 38 | 2.0 | 10.0 | 0.00 | 0.00 | 0.00 | 63 | 1019.0 |
| 20260507154929 | 63 | 86 | 2.0 | 9.0 | 0.00 | 0.00 | 0.00 | 60 | 1019.0 |
| 20260507153441 | 62 | 103 | 3.0 | 10.0 | 0.00 | 0.00 | 0.00 | 63 | 1019.0 |
| 20260507152911 | 62 | 51 | 5.0 | 9.0 | 0.00 | 0.02 | 0.00 | 69 | 1019.2 |
| 20260507151432 | 61 | 52 | 3.0 | 7.0 | 0.00 | 0.03 | 0.00 | 69 | 1019.2 |
| 20260507150433 | 60 | 61 | 3.0 | 6.0 | 0.00 | 0.04 | 0.00 | 74 | 1019.3 |
| 20260507145429 | 60 | 338 | 2.0 | 5.0 | 0.00 | 0.04 | 0.00 | 74 | 1019.4 |
| 20260507144429 | 60 | 51 | 1.0 | 9.0 | 0.00 | 0.04 | 0.00 | 75 | 1019.5 |
| 20260507143429 | 59 | 37 | 4.0 | 7.0 | 0.00 | 0.04 | 0.00 | 74 | 1019.6 |
| 20260507142428 | 59 | 44 | 3.0 | 6.0 | 0.00 | 0.04 | 0.00 | 78 | 1019.5 |
| 20260507141429 | 58 | 10 | 5.0 | 7.0 | 0.00 | 0.04 | 0.00 | 78 | 1019.6 |
| 20260507140428 | 57 | 21 | 4.0 | 6.0 | 0.00 | 0.04 | 0.00 | 79 | 1019.7 |
| 20260507135429 | 56 | 37 | 2.0 | 4.0 | 0.00 | 0.04 | 0.00 | 81 | 1019.8 |
| 20260507134429 | 55 | 13 | 2.0 | 5.0 | 0.00 | 0.04 | 0.00 | 82 | 1019.8 |
| 20260507133425 | 55 | 23 | 3.0 | 5.0 | 0.00 | 0.04 | 0.00 | 82 | 1019.9 |
| 20260507132418 | 54 | 52 | 2.0 | 3.0 | 0.00 | 0.04 | 0.00 | 82 | 1020.0 |
| 20260507131418 | 54 | 48 | 2.0 | 3.0 | 0.00 | 0.04 | 0.00 | 83 | 1019.9 |
| 20260507130417 | 53 | 63 | 1.0 | 2.0 | 0.00 | 0.04 | 0.00 | 85 | 1019.9 |
| 20260507125417 | 53 | 293 | 0.0 | 2.0 | 0.00 | 0.04 | 0.00 | 86 | 1019.7 |
| 20260507124418 | 53 | 52 | 2.0 | 3.0 | 0.00 | 0.04 | 0.00 | 86 | 1019.5 |
| 20260507123419 | 52 | 55 | 1.0 | 2.0 | 0.00 | 0.04 | 0.00 | 88 | 1019.5 |
| 20260507122419 | 52 | 279 | 0.0 | 1.0 | 0.00 | 0.04 | 0.00 | 89 | 1019.5 |
| 20260507121420 | 51 | 279 | 0.0 | 0.0 | 0.00 | 0.04 | 0.00 | 90 | 1019.4 |
| 20260507120419 | 51 | 279 | 0.0 | 1.0 | 0.00 | 0.04 | 0.00 | 90 | 1019.2 |
| 20260507115418 | 51 | 283 | 0.0 | 0.0 | 0.00 | 0.04 | 0.00 | 89 | 1019.0 |
| 20260507114906 | 51 | 283 | 0.0 | 0.0 | 0.00 | 0.04 | 0.00 | 89 | 1019.1 |
| 20260507113419 | 51 | 278 | 0.0 | 1.0 | 0.00 | 0.04 | 0.00 | 89 | 1018.8 |
| 20260507112906 | 51 | 300 | 0.0 | 2.0 | 0.00 | 0.04 | 0.00 | 89 | 1018.8 |
| 20260507111418 | 51 | 264 | 0.0 | 3.0 | 0.00 | 0.04 | 0.00 | 89 | 1018.8 |
| 20260507110419 | 51 | 283 | 1.0 | 1.0 | 0.00 | 0.04 | 0.00 | 89 | 1019.0 |
| 20260507105413 | 51 | 282 | 0.0 | 0.0 | 0.00 | 0.04 | 0.00 | 89 | 1018.8 |
| 20260507104413 | 51 | 283 | 0.0 | 0.0 | 0.00 | 0.04 | 0.00 | 89 | 1018.6 |
| 20260507103413 | 51 | 283 | 0.0 | 0.0 | 0.00 | 0.04 | 0.00 | 89 | 1018.5 |
| 20260507102851 | 52 | 283 | 0.0 | 0.0 | 0.00 | 0.04 | 0.00 | 89 | 1018.2 |
| 20260507101408 | 52 | 345 | 0.0 | 0.0 | 0.00 | 0.04 | 0.00 | 89 | 1018.0 |
| 20260507100408 | 52 | 42 | 0.0 | 0.0 | 0.00 | 0.04 | 0.00 | 88 | 1017.9 |
| 20260507095407 | 53 | 42 | 0.0 | 0.0 | 0.00 | 0.04 | 0.00 | 87 | 1017.7 |
| 20260507094404 | 53 | 42 | 0.0 | 2.0 | 0.00 | 0.04 | 0.00 | 87 | 1017.4 |
| 20260507093402 | 53 | 42 | 0.0 | 1.0 | 0.00 | 0.04 | 0.00 | 87 | 1017.3 |
| 20260507092402 | 53 | 42 | 0.0 | 4.0 | 0.00 | 0.04 | 0.00 | 87 | 1017.3 |
| 20260507091401 | 53 | 49 | 1.0 | 2.0 | 0.00 | 0.04 | 0.00 | 87 | 1017.2 |
| 20260507090402 | 54 | 49 | 2.0 | 2.0 | 0.00 | 0.04 | 0.00 | 87 | 1017.1 |
| 20260507085401 | 54 | 49 | 0.0 | 0.0 | 0.00 | 0.04 | 0.00 | 86 | 1017.4 |
| 20260507085336 | 54 | 49 | 0.0 | 0.0 | 0.00 | 0.04 | 0.00 | 85 | 1017.3 |
| 20260507083401 | 54 | 49 | 0.0 | 0.0 | 0.00 | 0.04 | 0.00 | 85 | 1017.3 |
| 20260507082837 | 55 | 49 | 0.0 | 0.0 | 0.00 | 0.04 | 0.00 | 84 | 1017.3 |
| 20260507081401 | 55 | 49 | 0.0 | 0.0 | 0.00 | 0.04 | 0.00 | 83 | 1017.3 |
| 20260507080401 | 55 | 49 | 1.0 | 2.0 | 0.00 | 0.04 | 0.00 | 83 | 1017.1 |
| 20260507075401 | 55 | 49 | 2.0 | 4.0 | 0.00 | 0.04 | 0.00 | 82 | 1017.0 |
| 20260507074401 | 55 | 34 | 2.0 | 5.0 | 0.00 | 0.04 | 0.00 | 82 | 1016.9 |
| 20260507073401 | 56 | 31 | 1.0 | 6.0 | 0.00 | 0.04 | 0.00 | 82 | 1016.9 |
| 20260507072401 | 56 | 44 | 2.0 | 4.0 | 0.00 | 0.04 | 0.00 | 81 | 1016.9 |
| 20260507071401 | 56 | 44 | 3.0 | 5.0 | 0.00 | 0.04 | 0.00 | 81 | 1016.7 |
| 20260507070401 | 56 | 32 | 2.0 | 4.0 | 0.00 | 0.07 | 0.00 | 81 | 1016.8 |
| 20260507065401 | 56 | 42 | 2.0 | 6.0 | 0.00 | 0.07 | 0.00 | 80 | 1016.8 |
| 20260507064359 | 56 | 35 | 0.0 | 4.0 | 0.00 | 0.07 | 0.00 | 80 | 1016.9 |
| 20260507063357 | 56 | 39 | 2.0 | 4.0 | 0.00 | 0.07 | 0.00 | 80 | 1016.8 |
| 20260507062357 | 57 | 47 | 2.0 | 3.0 | 0.00 | 0.07 | 0.00 | 80 | 1016.7 |
| 20260507061355 | 57 | 48 | 2.0 | 4.0 | 0.00 | 0.07 | 0.00 | 79 | 1016.4 |
| 20260507060353 | 57 | 21 | 1.0 | 2.0 | 0.00 | 0.07 | 0.00 | 78 | 1016.4 |
| 20260507055353 | 57 | 49 | 0.0 | 2.0 | 0.00 | 0.07 | 0.00 | 78 | 1016.5 |
| 20260507054352 | 57 | 42 | 0.0 | 2.0 | 0.00 | 0.07 | 0.00 | 78 | 1016.5 |
| 20260507053349 | 57 | 65 | 0.0 | 3.0 | 0.00 | 0.07 | 0.00 | 77 | 1016.3 |
| 20260507052825 | 58 | 62 | 2.0 | 5.0 | 0.00 | 0.07 | 0.00 | 76 | 1016.3 |
| 20260507051347 | 58 | 80 | 2.0 | 4.0 | 0.00 | 0.07 | 0.00 | 76 | 1016.4 |
| 20260507050345 | 58 | 71 | 1.0 | 3.0 | 0.00 | 0.07 | 0.00 | 75 | 1016.3 |
| 20260507045346 | 58 | 71 | 2.0 | 4.0 | 0.00 | 0.07 | 0.07 | 75 | 1016.4 |
| 20260507044342 | 58 | 83 | 1.0 | 5.0 | 0.00 | 0.07 | 0.07 | 75 | 1016.5 |
| 20260507043341 | 58 | 65 | 1.0 | 5.0 | 0.00 | 0.07 | 0.07 | 74 | 1016.5 |
| 20260507042342 | 58 | 58 | 2.0 | 3.0 | 0.00 | 0.07 | 0.07 | 73 | 1016.6 |
| 20260507042259 | 59 | 61 | 1.0 | 6.0 | 0.00 | 0.07 | 0.07 | 73 | 1016.7 |
| 20260507040816 | 59 | 31 | 2.0 | 11.0 | 0.00 | 0.07 | 0.07 | 72 | 1016.7 |
| 20260507035337 | 59 | 55 | 1.0 | 7.0 | 0.00 | 0.07 | 0.07 | 72 | 1016.7 |
| 20260507034810 | 60 | 44 | 3.0 | 10.0 | 0.00 | 0.07 | 0.07 | 72 | 1016.8 |
| 20260507033333 | 60 | 58 | 3.0 | 7.0 | 0.00 | 0.07 | 0.07 | 72 | 1016.8 |
| 20260507032333 | 60 | 52 | 2.0 | 12.0 | 0.00 | 0.07 | 0.07 | 73 | 1016.8 |
| 20260507031331 | 60 | 28 | 5.0 | 11.0 | 0.00 | 0.07 | 0.07 | 73 | 1016.8 |
| 20260507030329 | 60 | 10 | 6.0 | 13.0 | 0.00 | 0.07 | 0.07 | 72 | 1016.6 |
| 20260507025329 | 60 | 51 | 9.0 | 16.0 | 0.00 | 0.07 | 0.07 | 72 | 1016.3 |
| 20260507024328 | 60 | 41 | 6.0 | 14.0 | 0.00 | 0.07 | 0.07 | 72 | 1016.2 |
| 20260507023325 | 60 | 41 | 8.0 | 16.0 | 0.00 | 0.07 | 0.07 | 71 | 1016.1 |
| 20260507022326 | 61 | 30 | 9.0 | 18.0 | 0.00 | 0.07 | 0.07 | 72 | 1015.9 |
| 20260507021810 | 61 | 34 | 4.0 | 10.0 | 0.00 | 0.07 | 0.07 | 72 | 1015.6 |
| 20260507020320 | 62 | 71 | 3.0 | 11.0 | 0.00 | 0.07 | 0.07 | 72 | 1015.4 |
| 20260507015321 | 62 | 89 | 4.0 | 10.0 | 0.00 | 0.07 | 0.07 | 72 | 1015.3 |
| 20260507014319 | 62 | 59 | 4.0 | 11.0 | 0.00 | 0.07 | 0.07 | 72 | 1014.8 |
| 20260507013317 | 62 | 49 | 4.0 | 11.0 | 0.00 | 0.07 | 0.07 | 71 | 1014.6 |
| 20260507012753 | 62 | 35 | 8.0 | 12.0 | 0.00 | 0.07 | 0.07 | 71 | 1014.4 |
| 20260507011806 | 62 | 61 | 3.0 | 11.0 | 0.00 | 0.07 | 0.07 | 72 | 1014.2 |
| 20260507010319 | 62 | 38 | 4.0 | 9.0 | 0.00 | 0.07 | 0.07 | 72 | 1014.0 |
| 20260507005318 | 62 | 38 | 3.0 | 9.0 | 0.00 | 0.07 | 0.07 | 72 | 1014.0 |
| 20260507004319 | 62 | 49 | 4.0 | 10.0 | 0.00 | 0.07 | 0.07 | 71 | 1013.8 |
| 20260507003319 | 62 | 45 | 5.0 | 11.0 | 0.00 | 0.07 | 0.07 | 71 | 1013.9 |
| 20260507002319 | 63 | 28 | 7.0 | 14.0 | 0.00 | 0.07 | 0.07 | 70 | 1013.7 |
| 20260507001645 | 63 | 38 | 9.0 | 14.0 | 0.00 | 0.07 | 0.07 | 70 | 1013.3 |
| 20260507001423 | 63 | 42 | 7.0 | 13.0 | 0.00 | 0.07 | 0.07 | 71 | 1013.7 |
| 20260507000454 | 63 | 47 | 8.0 | 11.0 | 0.00 | 0.07 | 0.07 | 70 | 1013.5 |
| 20260506234319 | 64 | 34 | 4.0 | 11.0 | 0.00 | 0.07 | 0.07 | 71 | 1013.2 |
| 20260506233319 | 64 | 47 | 7.0 | 11.0 | 0.00 | 0.07 | 0.07 | 70 | 1013.1 |
| 20260506232319 | 64 | 35 | 4.0 | 12.0 | 0.00 | 0.07 | 0.07 | 71 | 1013.0 |
| 20260506231319 | 64 | 28 | 5.0 | 11.0 | 0.00 | 0.07 | 0.07 | 70 | 1013.0 |
| 20260506230319 | 64 | 48 | 5.0 | 12.0 | 0.00 | 0.07 | 0.07 | 71 | 1012.9 |
| 20260506225318 | 65 | 44 | 8.0 | 14.0 | 0.00 | 0.07 | 0.07 | 69 | 1012.9 |
| 20260506224319 | 65 | 34 | 4.0 | 12.0 | 0.00 | 0.07 | 0.07 | 71 | 1012.8 |
| 20260506223320 | 64 | 45 | 8.0 | 12.0 | 0.00 | 0.07 | 0.07 | 70 | 1012.9 |
| 20260506222319 | 65 | 27 | 5.0 | 10.0 | 0.00 | 0.07 | 0.07 | 69 | 1012.6 |
| 20260506221318 | 65 | 44 | 4.0 | 11.0 | 0.00 | 0.07 | 0.07 | 69 | 1012.8 |
| 20260506220318 | 65 | 23 | 6.0 | 14.0 | 0.00 | 0.07 | 0.07 | 68 | 1012.8 |
| 20260506215314 | 65 | 85 | 3.0 | 15.0 | 0.00 | 0.07 | 0.07 | 70 | 1012.9 |
| 20260506214312 | 64 | 37 | 5.0 | 11.0 | 0.00 | 0.07 | 0.07 | 69 | 1012.7 |
| 20260506213312 | 62 | 49 | 4.0 | 10.0 | 0.00 | 0.07 | 0.07 | 72 | 1012.8 |
| 20260506212310 | 62 | 28 | 4.0 | 10.0 | 0.00 | 0.07 | 0.07 | 73 | 1013.1 |
| 20260506211308 | 61 | 42 | 3.0 | 7.0 | 0.00 | 0.07 | 0.07 | 73 | 1013.2 |
| 20260506210308 | 61 | 45 | 4.0 | 11.0 | 0.00 | 0.07 | 0.07 | 72 | 1013.0 |
| 20260506205306 | 62 | 47 | 5.0 | 10.0 | 0.00 | 0.07 | 0.07 | 71 | 1013.1 |
| 20260506204303 | 61 | 54 | 5.0 | 9.0 | 0.00 | 0.07 | 0.07 | 72 | 1012.9 |
| 20260506203302 | 61 | 45 | 4.0 | 9.0 | 0.00 | 0.07 | 0.07 | 74 | 1013.3 |
| 20260506202305 | 61 | 68 | 6.0 | 13.0 | 0.00 | 0.07 | 0.07 | 74 | 1013.4 |
| 20260506201748 | 61 | 24 | 7.0 | 11.0 | 0.00 | 0.07 | 0.07 | 72 | 1013.4 |
| 20260506200301 | 60 | 49 | 3.0 | 10.0 | 0.00 | 0.07 | 0.07 | 74 | 1013.7 |
| 20260506195300 | 59 | 45 | 3.0 | 9.0 | 0.00 | 0.07 | 0.07 | 73 | 1014.0 |
| 20260506194301 | 59 | 49 | 0.0 | 7.0 | 0.00 | 0.07 | 0.07 | 73 | 1014.2 |